Flag for U.S.A. Weather past 2 weeks in Warren, Michigan, U.S.A.

Now
36 °F

Clear.


Feels Like: 30 °F
Forecast: 35 / 45 °F
Wind: 8 mph from Southwest

Location: Detroit City Airport

Current Time: Dec 26, 2014 at 6:42:59 AM

Latest Report: Dec 26, 2014 at 5:53 AM


Visibility: 10 mi

Pressure: 30.14 "Hg

Humidity: 79%

Dew point: 30 °F

Location of WarrenLocation

Historic Weather in Warren — Graph

°F

Warren temperature yesterday

Maximum temperature yesterday: 41 °F (at 10:53 AM)
Minimum temperature yesterday: 37 °F (at 9:53 PM)
Average temperature yesterday: 39 °F

Past Weeks' High & Low Weather Summary

 TemperatureHumidityPressure
High52 °F (Dec 14, 12:53 PM)93% (Dec 16, 9:53 AM)30.36 "Hg (Dec 16, 9:53 AM)
Low22 °F (Dec 20, 1:53 AM)28% (Dec 11, 12:53 PM)29.23 "Hg (Dec 24, 6:53 PM)
Average38 °F74%30.04 "Hg
* Reported Dec 11 4:53 AM — Dec 26 4:53 AM, Warren, Weather by CustomWeather, © 2014

Note: Actual official high and low records may vary slightly from our data, if they occured in-between our weather recording intervals... More about our weather records

Advertising

Warren weather history for previous 24 hours

 ConditionsComfort  
Time TempWeatherWind HumidityBarometerVisibility
4:53 AM
Dec 26
37 °FClear.9 mph76%30.16 "Hg10 mi
3:53 AM37 °FClear.9 mph76%30.17 "Hg10 mi
2:53 AM37 °FClear.10 mph76%30.17 "Hg10 mi
1:53 AM38 °FClear.13 mph73%30.15 "Hg10 mi
12:53 AM38 °FClear.10 mph73%30.13 "Hg10 mi
11:53 PM
Dec 25
37 °FClear.13 mph73%30.13 "Hg10 mi
10:53 PM37 °FClear.10 mph73%30.14 "Hg10 mi
9:53 PM37 °FClear.8 mph73%30.13 "Hg10 mi
8:53 PM38 °FClear.13 mph70%30.14 "Hg10 mi
7:53 PM39 °FOvercast.15 mph67%30.12 "Hg10 mi
6:53 PM39 °FOvercast.12 mph65%30.09 "Hg10 mi
5:53 PM39 °FOvercast.13 mph65%30.09 "Hg10 mi
4:53 PM39 °FOvercast.13 mph65%30.06 "Hg10 mi
3:53 PM39 °FOvercast.12 mph65%30.04 "Hg10 mi
2:53 PM40 °FOvercast.15 mph63%30.00 "Hg10 mi
1:53 PM41 °FOvercast.14 mph65%29.98 "Hg10 mi
12:53 PM41 °FOvercast.16 mph62%29.95 "Hg10 mi
11:53 AM41 °FOvercast.13 mph67%29.94 "Hg10 mi
10:53 AM41 °FCloudy.12 mph70%29.93 "Hg10 mi
9:53 AM40 °FMostly cloudy.10 mph77%29.88 "Hg10 mi
8:53 AM40 °FMostly cloudy.17 mph73%29.83 "Hg10 mi
7:53 AM40 °FOvercast.14 mph77%29.78 "Hg10 mi
6:53 AM40 °FLight rain. Overcast.16 mph80%29.74 "Hg10 mi
Weather by CustomWeather, © 2014

See weather overviewHow to use our weather pages